When you browse on this site, cookies collect data to enhance your experience and personalize the content and advertising you see.
Visit our Privacy Policy to learn more. By continuing to use the site, you agree to this use of cookies and data.
  • In Czech Republic
  • List of Countries
  • For 7 days
  • Water Temperature
  • Weather Map
  • Weather Widgets
  • user-avatar
    Login

    Hourly Weather Neuquén

    Today, 9 December, Monday

    Time Temperature Precipitation Wind Pressure Humidity
    00:00 +25°C° 0 mm 5 mps 729 mmHg 23%
    01:00 +22°C° 0 mm 5 mps 729 mmHg 27%
    02:00 +21°C° 0 mm 5 mps 729 mmHg 29%
    03:00 +20°C° 0 mm 4 mps 729 mmHg 32%
    04:00 +19°C° 0 mm 4 mps 729 mmHg 34%
    05:00 +22°C° 0 mm 5 mps 729 mmHg 28%
    06:00 +24°C° 0 mm 6 mps 730 mmHg 22%
    07:00 +28°C° 0 mm 7 mps 730 mmHg 16%
    08:00 +30°C° 0 mm 7 mps 730 mmHg 13%
    09:00 +33°C° 0 mm 7 mps 730 mmHg 11%
    10:00 +35°C° 0 mm 7 mps 729 mmHg 8%
    11:00 +36°C° 0 mm 7 mps 729 mmHg 7%
    12:00 +38°C° 0 mm 7 mps 728 mmHg 6%
    13:00 +39°C° 0 mm 7 mps 728 mmHg 5%
    14:00 +39°C° 0 mm 8 mps 727 mmHg 5%
    15:00 +40°C° 0 mm 9 mps 727 mmHg 5%
    16:00 +41°C° 0 mm 11 mps 727 mmHg 5%
    17:00 +37°C° 0 mm 11 mps 727 mmHg 6%
    18:00 +34°C° 0 mm 11 mps 727 mmHg 8%
    19:00 +31°C° 0 mm 11 mps 728 mmHg 9%
    20:00 +29°C° 0 mm 11 mps 728 mmHg 12%
    21:00 +27°C° 0 mm 10 mps 729 mmHg 16%
    22:00 +26°C° 0 mm 10 mps 729 mmHg 19%
    23:00 +24°C° 0 mm 9 mps 729 mmHg 20%

    Tomorrow, 10 December, Tuesday

    Time Temperature Precipitation Wind Pressure Humidity
    00:00 +23°C° 0 mm 8 mps 729 mmHg 22%
    01:00 +22°C° 0 mm 7 mps 729 mmHg 23%
    02:00 +21°C° 0 mm 6 mps 729 mmHg 26%
    03:00 +20°C° 0 mm 5 mps 730 mmHg 30%
    04:00 +19°C° 0 mm 4 mps 730 mmHg 33%
    05:00 +21°C° 0 mm 4 mps 730 mmHg 29%
    06:00 +23°C° 0 mm 5 mps 731 mmHg 26%
    07:00 +26°C° 0 mm 5 mps 731 mmHg 22%
    08:00 +27°C° 0 mm 5 mps 731 mmHg 19%
    09:00 +29°C° 0 mm 4 mps 731 mmHg 16%
    10:00 +30°C° 0 mm 3 mps 731 mmHg 13%
    11:00 +33°C° 0 mm 4 mps 730 mmHg 11%
    12:00 +34°C° 0 mm 5 mps 729 mmHg 10%
    13:00 +35°C° 0 mm 6 mps 729 mmHg 8%
    14:00 +35°C° 0 mm 5 mps 728 mmHg 8%
    15:00 +36°C° 0 mm 4 mps 728 mmHg 7%
    16:00 +36°C° 0 mm 4 mps 727 mmHg 6%
    17:00 +34°C° 0 mm 6 mps 727 mmHg 8%
    18:00 +32°C° 0 mm 8 mps 727 mmHg 10%
    19:00 +29°C° 0 mm 10 mps 728 mmHg 11%
    20:00 +27°C° 0 mm 10 mps 728 mmHg 13%
    21:00 +26°C° 0 mm 10 mps 728 mmHg 15%
    22:00 +24°C° 0 mm 10 mps 729 mmHg 17%
    23:00 +23°C° 0 mm 10 mps 728 mmHg 20%

    Day after tomorrow, 11 December, Wednesday

    Time Temperature Precipitation Wind Pressure Humidity
    00:00 +23°C° 0 mm 10 mps 728 mmHg 23%
    01:00 +22°C° 0 mm 10 mps 728 mmHg 26%
    02:00 +21°C° 0 mm 10 mps 728 mmHg 28%
    03:00 +19°C° 0 mm 10 mps 728 mmHg 29%
    04:00 +18°C° 0 mm 10 mps 728 mmHg 31%
    05:00 +19°C° 0 mm 11 mps 728 mmHg 28%
    06:00 +21°C° 0 mm 11 mps 729 mmHg 26%
    07:00 +22°C° 0 mm 11 mps 729 mmHg 23%
    08:00 +24°C° 0 mm 11 mps 729 mmHg 21%
    09:00 +27°C° 0 mm 11 mps 728 mmHg 18%
    10:00 +29°C° 0 mm 11 mps 728 mmHg 16%
    11:00 +31°C° 0 mm 12 mps 728 mmHg 14%
    12:00 +32°C° 0 mm 14 mps 727 mmHg 12%
    13:00 +32°C° 0 mm 16 mps 727 mmHg 10%
    14:00 +31°C° 0 mm 16 mps 727 mmHg 10%
    15:00 +29°C° 0 mm 16 mps 727 mmHg 11%
    16:00 +28°C° 0 mm 17 mps 727 mmHg 11%
    17:00 +26°C° 0 mm 15 mps 727 mmHg 13%
    18:00 +23°C° 0 mm 14 mps 728 mmHg 15%
    19:00 +22°C° 0 mm 13 mps 729 mmHg 18%
    20:00 +19°C° 0 mm 13 mps 730 mmHg 22%
    21:00 +18°C° 0 mm 12 mps 731 mmHg 26%
    22:00 +15°C° 0 mm 12 mps 732 mmHg 29%
    23:00 +14°C° 0 mm 11 mps 732 mmHg 32%

    12 December, Thursday

    Time Temperature Precipitation Wind Pressure Humidity
    00:00 +13°C° 0 mm 10 mps 733 mmHg 34%
    01:00 +12°C° 0 mm 8 mps 733 mmHg 36%
    02:00 +11°C° 0 mm 7 mps 733 mmHg 36%
    03:00 +11°C° 0 mm 6 mps 734 mmHg 35%
    04:00 +10°C° 0 mm 5 mps 734 mmHg 35%
    05:00 +11°C° 0 mm 6 mps 734 mmHg 32%
    06:00 +13°C° 0 mm 6 mps 735 mmHg 29%
    07:00 +15°C° 0 mm 7 mps 735 mmHg 25%
    08:00 +16°C° 0 mm 6 mps 735 mmHg 22%
    09:00 +19°C° 0 mm 6 mps 735 mmHg 18%
    10:00 +20°C° 0 mm 5 mps 735 mmHg 14%
    11:00 +22°C° 0 mm 5 mps 734 mmHg 13%
    12:00 +23°C° 0 mm 5 mps 734 mmHg 11%
    13:00 +25°C° 0 mm 5 mps 733 mmHg 10%
    14:00 +26°C° 0 mm 5 mps 732 mmHg 10%
    15:00 +26°C° 0 mm 5 mps 732 mmHg 10%
    16:00 +26°C° 0 mm 5 mps 731 mmHg 10%
    17:00 +23°C° 0 mm 4 mps 731 mmHg 12%
    18:00 +20°C° 0 mm 2 mps 731 mmHg 14%
    19:00 +19°C° 0 mm 1 mps 731 mmHg 16%
    20:00 +18°C° 0 mm 2 mps 731 mmHg 16%
    21:00 +19°C° 0 mm 3 mps 732 mmHg 15%
    22:00 +19°C° 0 mm 4 mps 732 mmHg 15%
    23:00 +18°C° 0 mm 4 mps 732 mmHg 17%

    13 December, Friday

    Time Temperature Precipitation Wind Pressure Humidity
    00:00 +18°C° 0 mm 4 mps 731 mmHg 19%
    01:00 +17°C° 0 mm 4 mps 731 mmHg 21%
    02:00 +17°C° 0 mm 4 mps 731 mmHg 25%
    03:00 +16°C° 0 mm 3 mps 730 mmHg 29%
    04:00 +14°C° 0 mm 3 mps 730 mmHg 33%
    05:00 +17°C° 0 mm 3 mps 730 mmHg 29%
    06:00 +19°C° 0 mm 3 mps 730 mmHg 25%
    07:00 +21°C° 0 mm 4 mps 731 mmHg 21%
    08:00 +23°C° 0 mm 5 mps 730 mmHg 19%
    09:00 +24°C° 0 mm 6 mps 730 mmHg 17%
    10:00 +27°C° 0 mm 7 mps 730 mmHg 15%
    11:00 +28°C° 0 mm 7 mps 729 mmHg 14%
    12:00 +29°C° 0 mm 6 mps 729 mmHg 13%
    13:00 +32°C° 0 mm 6 mps 728 mmHg 12%
    14:00 +32°C° 0 mm 7 mps 728 mmHg 11%
    15:00 +32°C° 0 mm 8 mps 728 mmHg 11%
    16:00 +33°C° 0 mm 8 mps 727 mmHg 10%
    17:00 +31°C° 0 mm 9 mps 728 mmHg 13%
    18:00 +28°C° 0 mm 10 mps 728 mmHg 16%
    19:00 +26°C° 0 mm 10 mps 729 mmHg 19%
    20:00 +24°C° 0 mm 9 mps 729 mmHg 22%
    21:00 +23°C° 0 mm 9 mps 730 mmHg 25%
    22:00 +21°C° 0 mm 8 mps 731 mmHg 28%
    23:00 +20°C° 0 mm 7 mps 731 mmHg 32%

    14 December, Saturday

    Time Temperature Precipitation Wind Pressure Humidity
    00:00 +19°C° 0 mm 6 mps 731 mmHg 36%
    01:00 +16°C° 0 mm 5 mps 731 mmHg 40%
    02:00 +17°C° 0 mm 4 mps 731 mmHg 42%
    03:00 +15°C° 0 mm 4 mps 732 mmHg 44%
    04:00 +14°C° 0 mm 4 mps 732 mmHg 46%
    05:00 +17°C° 0 mm 4 mps 732 mmHg 41%
    06:00 +19°C° 0 mm 4 mps 733 mmHg 36%
    07:00 +21°C° 0 mm 5 mps 733 mmHg 31%
    08:00 +22°C° 0 mm 5 mps 733 mmHg 26%
    09:00 +25°C° 0 mm 5 mps 733 mmHg 20%
    10:00 +26°C° 0 mm 5 mps 733 mmHg 15%
    11:00 +27°C° 0 mm 5 mps 732 mmHg 13%
    12:00 +29°C° 0 mm 6 mps 732 mmHg 11%
    13:00 +30°C° 0 mm 6 mps 731 mmHg 10%
    14:00 +30°C° 0 mm 5 mps 731 mmHg 10%
    15:00 +32°C° 0 mm 5 mps 731 mmHg 9%
    16:00 +32°C° 0 mm 5 mps 730 mmHg 9%
    17:00 +29°C° 0 mm 4 mps 731 mmHg 12%
    18:00 +27°C° 0 mm 3 mps 731 mmHg 14%
    19:00 +25°C° 0 mm 3 mps 731 mmHg 17%
    20:00 +23°C° 0 mm 4 mps 732 mmHg 21%
    21:00 +23°C° 0 mm 6 mps 732 mmHg 24%
    22:00 +22°C° 0 mm 8 mps 732 mmHg 28%
    23:00 +21°C° 0 mm 8 mps 732 mmHg 29%
    Show more